Chippewa, MI

3:00 PM EDT on October 23, 2019 (GMT -0400)
Chippewa County International

Weather History for KCIU - August, 2019

Change the Weather History Date:

Monday, August 5, 2019

  Actual Average Record
Temperature  
Mean Temperature 70 °F -  
Max Temperature 82 °F 77 °F 89 °F (1989)
Min Temperature 60 °F 51 °F 40 °F (1993)
Cooling Degree Days 6    
Growing Degree Days 20 (Base 50)    
Moisture  
Dew Point 62 °F    
Average Humidity 85    
Maximum Humidity 100    
Minimum Humidity 60    
Precipitation  
Precipitation 0.01 in - - ()
Sea Level Pressure  
Sea Level Pressure 29.87 in    
Wind  
Wind Speed 5 mph (SSW)    
Max Wind Speed 13 mph    
Max Gust Speed 18 mph    
Visibility 8 miles    
Events Fog    
Averages and records for this station are not official NWS values.
T = Trace of Precipitation, MM = Missing Value Source: NWS Daily Summary

Daily Weather History Graph

Daily Weather History Graph

Search for Another Location

Airport or City:

Astronomy

Aug. 05, 2019 Rise Set
Actual Time 6:24 AM EDT 9:02 PM EDT
Civil Twilight 5:49 AM EDT 9:36 PM EDT
Nautical Twilight 5:06 AM EDT 10:19 PM EDT
Astronomical Twilight 4:16 AM EDT 11:09 PM EDT
Moon 11:56 AM EDT (8/5) 11:55 PM EDT (8/5)
Length of Visible Light 15h 47m
Length of Day
14h 38m
Waxing Crescent, 28% of the Moon is Illuminated
Aug 5
Waxing Crescent
Aug 7
First Quarter
Aug 15
Full
Aug 23
Last Quarter
Aug 30
New

Hourly Weather History & Observations

Time (EDT) Temp. Heat Index Dew Point Humidity Pressure Visibility Wind Dir Wind Speed Gust Speed Precip Events Conditions
12:56 AM 62.1 °F - 55.0 °F 78% 29.97 in 10.0 mi SSE 4.6 mph - N/A   Clear
1:56 AM 60.1 °F - 55.9 °F 86% 29.96 in 10.0 mi South 5.8 mph - N/A   Clear
2:56 AM 61.0 °F - 57.9 °F 90% 29.96 in 10.0 mi South 5.8 mph - N/A   Clear
3:56 AM 60.1 °F - 57.9 °F 93% 29.95 in 10.0 mi South 5.8 mph - N/A   Clear
4:56 AM 61.0 °F - 60.1 °F 97% 29.93 in 7.0 mi South 4.6 mph - N/A   Clear
5:42 AM 62.6 °F - 60.8 °F 94% 29.94 in 8.0 mi Variable 3.5 mph - N/A   Scattered Clouds
5:49 AM 60.8 °F - 60.8 °F 100% 29.94 in 2.5 mi SSW 3.5 mph - N/A   Mostly Cloudy
5:53 AM 60.8 °F - 60.8 °F 100% 29.94 in 1.0 mi SSW 3.5 mph - N/A   Mostly Cloudy
5:56 AM 61.0 °F - 61.0 °F 100% 29.92 in 0.8 mi South 3.5 mph - N/A   Mostly Cloudy
6:02 AM 60.8 °F - 60.8 °F 100% 29.94 in 0.2 mi South 3.5 mph - N/A Fog Fog
6:10 AM 60.8 °F - 60.8 °F 100% 29.94 in 0.8 mi SW 3.5 mph - N/A   Overcast
6:13 AM 60.8 °F - 60.8 °F 100% 29.94 in 1.2 mi SSW 3.5 mph - N/A   Overcast
6:23 AM 60.8 °F - 60.8 °F 100% 29.94 in 2.0 mi South 4.6 mph - N/A   Overcast
6:43 AM 60.8 °F - 60.8 °F 100% 29.93 in 5.0 mi South 4.6 mph - N/A   Overcast
6:56 AM 62.1 °F - 61.0 °F 96% 29.92 in 8.0 mi South 4.6 mph - N/A   Mostly Cloudy
7:56 AM 64.9 °F - 63.0 °F 93% 29.91 in 10.0 mi South 4.6 mph - N/A   Clear
8:56 AM 69.1 °F - 64.0 °F 84% 29.91 in 10.0 mi SW 4.6 mph - N/A   Clear
9:56 AM 73.0 °F - 63.0 °F 71% 29.89 in 10.0 mi Variable 6.9 mph - N/A   Clear
10:56 AM 75.9 °F - 64.9 °F 69% 29.89 in 10.0 mi SW 10.4 mph - N/A   Clear
11:56 AM 78.1 °F - 66.0 °F 66% 29.88 in 10.0 mi SW 9.2 mph - N/A   Mostly Cloudy
12:56 PM 80.1 °F 82.3 °F 66.9 °F 64% 29.86 in 10.0 mi SW 8.1 mph - N/A   Mostly Cloudy
1:56 PM 81.0 °F 83.3 °F 66.9 °F 62% 29.85 in 10.0 mi WSW 8.1 mph - N/A   Partly Cloudy
2:56 PM 81.0 °F 83.8 °F 68.0 °F 65% 29.83 in 10.0 mi SW 9.2 mph - N/A   Clear
3:56 PM 81.0 °F 83.3 °F 66.9 °F 62% 29.80 in 10.0 mi SW 10.4 mph 16.1 mph N/A   Clear
4:56 PM 81.0 °F 83.0 °F 66.0 °F 60% 29.77 in 10.0 mi SSW 8.1 mph 18.4 mph N/A   Clear
5:56 PM 77.0 °F - 64.9 °F 66% 29.80 in 10.0 mi WSW 5.8 mph - N/A   Clear
6:56 PM 73.9 °F - 64.9 °F 73% 29.78 in 10.0 mi WSW 5.8 mph - N/A   Clear
7:48 PM 66.2 °F - 60.8 °F 83% 29.81 in 10.0 mi NNW 12.7 mph - 0.01 in   Overcast
7:56 PM 64.9 °F - 61.0 °F 87% 29.79 in 10.0 mi NNW 8.1 mph - 0.01 in   Overcast
8:25 PM 64.4 °F - 60.8 °F 88% 29.76 in 10.0 mi NE 4.6 mph - N/A   Scattered Clouds
8:56 PM 64.9 °F - 61.0 °F 87% 29.73 in 10.0 mi Variable 3.5 mph - N/A   Overcast
9:56 PM 64.9 °F - 61.0 °F 87% 29.75 in 10.0 mi South 6.9 mph - N/A   Overcast
10:56 PM 64.9 °F - 61.0 °F 87% 29.75 in 10.0 mi Calm Calm - N/A   Mostly Cloudy
11:56 PM 63.0 °F - 61.0 °F 93% 29.75 in 10.0 mi Calm Calm - N/A   Clear